Lexington Weather

Lexington, Massachusetts, USA

78°F
7/25/2024 12:53pm 
  • Lexington Conditions: Mostly cloudy
  • Temperature: 78.1°F / 25.6°CWarmer 0.4°F than last hour.
  • Dew Point: 72.5°FDecreased 0.4°Fsince last hour.
  • Relative Humidity: 83%Decreased 2.0% since last hour.
  • Wind: Wind from SW SW 3 mph, 10-min avg: 1 mph, gust: 7 mph
  • Barometer: 29.93 in Steady
  • Visibility: 10 miles
  • Rain Today: 0.00 in
  •   

Regional Weather Roundup
for Boston, MA

        
000
ASUS41 KBOX 190410
RWRBOX

REGIONAL WEATHER ROUNDUP
NATIONAL WEATHER SERVICE BOSTON/NORTON MA
1200 AM EDT FRI JUL 19 2024

NOTE:  "FAIR" INDICATES FEW OR NO CLOUDS BELOW 12,000 FEET WITH NO 
SIGNIFICANT WEATHER AND/OR OBSTRUCTIONS TO VISIBILITY.

MAZALL-190500-
EASTERN MASSACHUSETTS
  
CITY           SKY/WX    TMP DP  RH WIND       PRES   REMARKS
BOSTON         MOCLDY    76  58  53 NW10      29.95R                  
BEVERLY        MOCLDY    71  61  70 W6        29.94R                  
LAWRENCE       CLEAR     71  59  65 NW3       29.98R                  
BEDFORD        CLEAR     67  59  75 CALM      29.95R                  
NORWOOD        PTCLDY    67  63  87 S3        29.96R                  
MARSHFIELD     MOCLDY    72  59  64 VRB5      29.94R                  
PLYMOUTH       PTCLDY    74  57  55 W7        29.95R                  
TAUNTON        PTCLDY    69  59  70 W3        29.95S                  
NEW BEDFORD    PTCLDY    73  60  63 NW3       29.95R                  
$$

MAZALL-190500-
CAPE COD AND THE ISLANDS
  
CITY           SKY/WX    TMP DP  RH WIND       PRES   REMARKS
FALMOUTH       NOT AVBL                                               
HYANNIS          N/A     74  59  59 NW6       29.93R                  
CHATHAM        MOCLDY    76  62  62 VRB3      29.94S                  
PROVINCETOWN   PTCLDY    73  64  73 W12       29.95R                  
NANTUCKET      CLOUDY    75  67  76 NW7       29.94R                  
MARTHAS VNYRD  MOCLDY    72  60  66 NW7       29.94S                  
$$
 
MAZALL-190500-
CENTRAL AND WESTERN MASSACHUSETTS
  
CITY           SKY/WX    TMP DP  RH WIND       PRES   REMARKS
WORCESTER      CLEAR     68  56  65 NW13      30.01R                  
FITCHBURG      CLEAR     69  59  70 NW8       29.99R                  
ORANGE         CLEAR     65  58  78 CALM      30.01R                  
SPRINGFIELD    CLEAR     67  56  67 N6        29.97R                  
WESTFIELD      CLEAR     70  55  59 NW7       30.00R                  
NORTH ADAMS    PTCLDY    64  58  80 VRB6      30.03R                  
PITTSFIELD     CLEAR     62  54  74 W7        30.05R                  
$$
 
RIZALL-190500-
RHODE ISLAND
  
CITY           SKY/WX    TMP DP  RH WIND       PRES   REMARKS
PROVIDENCE     PTCLDY    69  60  73 W5        29.97R                  
NEWPORT        PTCLDY    73  59  61 NW9       29.96R                  
BLOCK ISLAND   MOCLDY    71  60  68 W5          N/A                   
SMITHFIELD     PTCLDY    67  59  75 NW6       29.99R                  
WESTERLY       MOCLDY    73  59  61 NW5       29.97R                  
$$
 
CTZALL-190500-
CONNECTICUT
  
CITY           SKY/WX    TMP DP  RH WIND       PRES   REMARKS
BRADLEY INTL   PTCLDY    70  55  59 N5        30.00R                  
HARTFORD       PTCLDY    73  55  53 N8        29.99R                  
PLAINVILLE     CLEAR     70  56  61 N5        30.00S                  
BRIDGEPORT     CLEAR     74  57  55 N8        30.00R                  
DANBURY        CLEAR     66  60  81 CALM      30.04R                  
GROTON         MOCLDY    74  60  61 NW7       29.97R                  
NEW HAVEN      CLEAR     73  60  63 N5        30.00R                  
CHESTER        PTCLDY    72  57  60 NW9       30.00S                  
MERIDEN        CLEAR     71  56  58 NW7       30.00R                  
WILLIMANTIC    CLEAR     66  62  87 CALM      29.99S                  
OXFORD         CLEAR     66  58  75 NW5       30.04R                  
$$

MEZ002-015-021-024-NHZ003-005-008-011-012-014-VTZ005-008-190500-
NORTHERN NEW ENGLAND
  
CITY           SKY/WX    TMP DP  RH WIND       PRES   REMARKS
PORTLAND ME    PTCLDY    69  55  60 NW9       29.95R                  
BANGOR ME      PTCLDY    66  56  70 SW5       29.92R                  
CONCORD NH     CLEAR     67  57  70 N6        29.99R                  
MANCHESTER NH  CLEAR     73  56  54 NW14      29.96R                  
NASHUA NH      CLEAR     69  63  81 W7        29.98R                  
PORTSMOUTH NH  MOCLDY    69  58  66 NW7       29.94R                  
JAFFREY NH     CLEAR     64  59  83 CALM      30.02R                  
KEENE NH       CLEAR     62  60  93 CALM      30.01R                  
BURLINGTON VT  PTCLDY    65  54  67 NW5       30.04R                  
MT. WASHINGTON FOG       41  41 100 NW48        N/A  VSB 0   WCI  27  
$$

NYZ052-076-190500-
EASTERN NEW YORK
  
CITY           SKY/WX    TMP DP  RH WIND       PRES   REMARKS
ALBANY         CLEAR     68  55  63 NW5       30.04R                  
NEW YORK CITY  PTCLDY    76  54  46 N10       30.00R                  
$$
 
ANZALL-190500-
MARINE OBSERVATIONS
  
STATION/POSITION TIME  TEMP    WIND        PRES    VSBY  WAVE
                       AIR SEA DIR/SP/G                  HT/PER
                 (UTC) (F)     (DEG/KT/KT) (MB)    (MI)  (FT/S)
BOSTON BUOY      0350   66 62  280/  8/ 10 1014.1R         1/ 8
BUZZARDS BAY     0300   76     320/ 14/ 15 1014.1R
NANTUCKET SOUND  0350   78 76  300/ 16/ 17 1013.0R         1/ 3
MASS BAY-STELLWA 0204   67 63  270/  6/  8 1012.6R  1 7/8  2/ 8
ISLE OF SHOALS   0300   76     320/ 11/ 12 1012.7R
S OF BLOCK IS    0356      74                N/A           6/ 8
$$

......................KEY.........................
  SKY/WX - SKY CONDITION/PRESENT WEATHER
  TMP    - TEMPERATURE IN FAHRENHEIT
  DWPT   - DEWPOINT IN FAHRENHEIT
  RH     - RELATIVE HUMIDITY IN PERCENT
  WIND   - DIRECTION AND SPEED IN MPH
  PRES   - MEAN SEA LEVEL PRESSURE IN INCHES OF HG
  WCI    - WIND CHILL INDEX
  VSB    - VISIBILITY IN MILES
  HX     - HEAT INDEX
  TC     - TEMPERATURE IN CELSIUS
  VRB    - VARIABLE WIND DIRECTION
  N/A    - NOT AVAILABLE
  
      

Other recent Regional Weather Roundups

Thu Jul 25, 12:10pm EDT

Thu Jul 25, 11:10am EDT

Thu Jul 25, 10:10am EDT

Thu Jul 25, 9:10am EDT

Thu Jul 25, 8:10am EDT

Thu Jul 25, 7:10am EDT

Thu Jul 25, 6:10am EDT

Thu Jul 25, 5:10am EDT

Thu Jul 25, 4:10am EDT

Thu Jul 25, 3:10am EDT

Thu Jul 25, 2:10am EDT

Thu Jul 25, 1:10am EDT

Thu Jul 25, 12:10am EDT

Wed Jul 24, 11:10pm EDT

Wed Jul 24, 10:10pm EDT

Wed Jul 24, 9:10pm EDT

Wed Jul 24, 8:10pm EDT

Wed Jul 24, 7:10pm EDT

Wed Jul 24, 6:10pm EDT

Wed Jul 24, 5:10pm EDT

Wed Jul 24, 4:10pm EDT

Wed Jul 24, 3:10pm EDT

Wed Jul 24, 2:10pm EDT

Wed Jul 24, 1:10pm EDT

Wed Jul 24, 12:10pm EDT

Wed Jul 24, 11:10am EDT

Wed Jul 24, 10:10am EDT

Wed Jul 24, 9:10am EDT

Wed Jul 24, 8:10am EDT

Wed Jul 24, 7:10am EDT

Wed Jul 24, 6:10am EDT

Wed Jul 24, 5:10am EDT

Wed Jul 24, 4:10am EDT

Wed Jul 24, 3:10am EDT

Wed Jul 24, 2:10am EDT

Wed Jul 24, 1:10am EDT

Wed Jul 24, 12:10am EDT

Tue Jul 23, 11:10pm EDT

Tue Jul 23, 10:10pm EDT

Tue Jul 23, 9:10pm EDT

Tue Jul 23, 8:10pm EDT

Tue Jul 23, 7:10pm EDT

Tue Jul 23, 6:10pm EDT

Tue Jul 23, 5:10pm EDT

Tue Jul 23, 4:10pm EDT

Tue Jul 23, 3:10pm EDT

Tue Jul 23, 2:10pm EDT

Tue Jul 23, 1:10pm EDT

Tue Jul 23, 12:10pm EDT

Tue Jul 23, 11:10am EDT

Tue Jul 23, 10:10am EDT

Tue Jul 23, 10:10am EDT

Tue Jul 23, 9:10am EDT

Tue Jul 23, 8:10am EDT

Tue Jul 23, 7:10am EDT

Tue Jul 23, 6:10am EDT

Tue Jul 23, 5:10am EDT

Tue Jul 23, 4:10am EDT

Tue Jul 23, 3:10am EDT

Tue Jul 23, 2:10am EDT

Tue Jul 23, 1:10am EDT

Tue Jul 23, 12:10am EDT

Mon Jul 22, 11:10pm EDT

Mon Jul 22, 10:10pm EDT

Mon Jul 22, 9:10pm EDT

Mon Jul 22, 8:10pm EDT

Mon Jul 22, 7:10pm EDT

Mon Jul 22, 6:10pm EDT

Mon Jul 22, 5:10pm EDT

Mon Jul 22, 4:10pm EDT

Mon Jul 22, 3:10pm EDT

Mon Jul 22, 2:10pm EDT

Mon Jul 22, 1:10pm EDT

Mon Jul 22, 12:10pm EDT

Mon Jul 22, 11:10am EDT

Mon Jul 22, 10:10am EDT

Mon Jul 22, 9:10am EDT

Mon Jul 22, 8:10am EDT

Mon Jul 22, 7:10am EDT

Mon Jul 22, 6:10am EDT

Mon Jul 22, 5:10am EDT

Mon Jul 22, 4:10am EDT

Mon Jul 22, 3:10am EDT

Mon Jul 22, 2:10am EDT

Mon Jul 22, 1:10am EDT

Mon Jul 22, 12:10am EDT

Sun Jul 21, 11:10pm EDT

Sun Jul 21, 10:10pm EDT

Sun Jul 21, 9:10pm EDT

Sun Jul 21, 8:10pm EDT

Sun Jul 21, 7:10pm EDT

Sun Jul 21, 6:10pm EDT

Sun Jul 21, 5:10pm EDT

Sun Jul 21, 4:10pm EDT

Sun Jul 21, 3:10pm EDT

Sun Jul 21, 2:10pm EDT

Sun Jul 21, 1:10pm EDT

Sun Jul 21, 12:10pm EDT

Sun Jul 21, 11:10am EDT

Sun Jul 21, 10:10am EDT

Sun Jul 21, 9:10am EDT

Sun Jul 21, 8:10am EDT

Sun Jul 21, 7:10am EDT

Sun Jul 21, 6:10am EDT

Sun Jul 21, 5:10am EDT

Sun Jul 21, 4:10am EDT

Sun Jul 21, 3:10am EDT

Sun Jul 21, 2:10am EDT

Sun Jul 21, 1:10am EDT

Sun Jul 21, 12:10am EDT

Sat Jul 20, 11:10pm EDT

Sat Jul 20, 10:10pm EDT

Sat Jul 20, 9:10pm EDT

Sat Jul 20, 8:10pm EDT

Sat Jul 20, 7:10pm EDT

Sat Jul 20, 6:10pm EDT

Sat Jul 20, 5:10pm EDT

Sat Jul 20, 4:10pm EDT

Sat Jul 20, 3:10pm EDT

Sat Jul 20, 2:10pm EDT

Sat Jul 20, 1:10pm EDT

Sat Jul 20, 12:10pm EDT

Sat Jul 20, 11:10am EDT

Sat Jul 20, 10:10am EDT

Sat Jul 20, 9:10am EDT

Sat Jul 20, 8:10am EDT

Sat Jul 20, 7:10am EDT

Sat Jul 20, 6:10am EDT

Sat Jul 20, 5:10am EDT

Sat Jul 20, 4:10am EDT

Sat Jul 20, 3:10am EDT

Sat Jul 20, 2:10am EDT

Sat Jul 20, 1:10am EDT

Sat Jul 20, 12:10am EDT

Fri Jul 19, 11:10pm EDT

Fri Jul 19, 10:10pm EDT

Fri Jul 19, 9:10pm EDT

Fri Jul 19, 8:10pm EDT

Fri Jul 19, 7:10pm EDT

Fri Jul 19, 6:10pm EDT

Fri Jul 19, 5:10pm EDT

Fri Jul 19, 4:10pm EDT

Fri Jul 19, 3:10pm EDT

Fri Jul 19, 2:10pm EDT

Fri Jul 19, 1:10pm EDT

Fri Jul 19, 12:10pm EDT

Fri Jul 19, 11:10am EDT

Fri Jul 19, 10:10am EDT

Fri Jul 19, 9:10am EDT

Fri Jul 19, 8:10am EDT

Fri Jul 19, 7:10am EDT

Fri Jul 19, 6:10am EDT

Fri Jul 19, 5:10am EDT

Fri Jul 19, 4:10am EDT

Fri Jul 19, 3:10am EDT

Fri Jul 19, 2:10am EDT

Fri Jul 19, 1:10am EDT

Thu Jul 18, 11:10pm EDT

Thu Jul 18, 10:10pm EDT

Thu Jul 18, 9:10pm EDT

Thu Jul 18, 8:10pm EDT

Thu Jul 18, 7:10pm EDT

Thu Jul 18, 6:10pm EDT

Thu Jul 18, 5:10pm EDT

Thu Jul 18, 4:10pm EDT

Thu Jul 18, 3:10pm EDT

Thu Jul 18, 2:10pm EDT

Thu Jul 18, 1:10pm EDT